[[{"header":{"parameterUnit":"m.s-1","parameterCategory":1,"la1":30.2991,"la2":30.254,"lo1":-89.0895,"lo2":-89.0444,"dy":0.0017,"dx":0.0017,"nx":28,"ny":28,"refTime":"2025-08-15T03:00:00:Z","depth":0,"parameterNumber":2,"parameterNumberName":"U-component_of_WINDS"},"data":[0,0,0,0,0,0,0,0,0,0,0,0,0,0,0,0,0,0,0,0,0,0,0,0,0,0,0,0,0,0,0,0,0,0,0,0,0,0,0,0,0,0,0,0,0,0,0,0,0,0,0,0,0,0,0,0,0,0,2.6124,2.6125,0,2.6265,2.6267,2.6269,2.6295,2.6294,2.6293,2.6292,2.6436,2.6441,2.6446,0,0,0,0,0,0,0,0,0,0,0,0,0,2.5874,2.5878,2.6124,2.6125,2.6127,2.6265,2.6267,2.6269,2.6296,2.6294,2.6293,2.6292,2.6434,2.644,2.6446,0,0,0,0,0,0,0,0,0,0,0,0,0,2.5996,2.588,2.6123,2.6157,2.6162,2.6265,2.6267,2.6269,2.6296,2.6294,2.6293,2.6291,2.6432,2.644,2.6447,2.6526,0,0,2.6469,2.6472,0,0,0,0,0,0,0,0,2.5989,2.6005,2.615,2.6155,2.616,2.6261,2.6232,2.6355,2.6296,2.6245,2.6292,2.629,2.6379,2.6391,2.6421,2.6532,2.6539,2.647,2.6474,2.6477,2.6479,0,0,0,0,0,0,0,2.598,2.5999,2.618,2.6152,2.6158,2.6164,2.618,2.6255,2.632,2.6249,2.6252,2.6268,2.6381,2.6414,2.6424,2.6541,2.647,2.6476,2.6481,2.6483,2.6722,2.6724,0,0,0,0,0,0,2.5966,2.5992,2.6175,2.6184,2.6069,2.617,2.6188,2.623,2.6319,2.6331,2.6269,2.6269,2.6402,2.6416,2.643,2.6526,2.6477,2.6484,2.6488,2.672,2.6723,2.6725,0,0,0,0,0,0,2.5961,2.5982,2.6169,2.6088,2.6113,2.6176,2.6224,2.6234,2.6266,2.6334,2.6346,2.6291,2.6401,2.6419,2.6501,2.6532,2.6487,2.6494,2.6718,2.6721,2.6724,2.6721,0,0,0,0,0,0,2.5953,2.598,2.6011,2.6089,2.6117,2.6239,2.6226,2.6238,2.6279,2.628,2.6357,2.6368,2.6401,2.649,2.6509,2.6541,2.65,2.6716,2.6719,2.6723,2.6719,2.6724,2.6728,0,0,0,0,0,2.5944,2.6005,2.6013,2.6035,2.6157,2.6241,2.6257,2.6294,2.6282,2.6313,2.6356,2.6366,2.6526,2.6498,2.6519,2.6554,2.6714,2.6718,2.6723,2.6717,2.6723,2.6728,0,0,0,0,0,0,2.5929,2.6016,2.6025,2.6113,2.6169,2.6245,2.6286,2.6299,2.636,2.6358,2.6401,2.6418,2.6497,2.6535,2.6502,2.6635,2.6619,2.6628,2.6607,2.6614,2.6618,2.6607,2.6506,0,0,0,0,0,2.5936,2.5997,2.607,2.614,2.6168,2.6222,2.626,2.6283,2.6343,2.6367,2.6417,2.6474,2.6537,2.6578,2.664,2.6725,2.6741,2.6759,2.6764,2.6767,2.6773,2.682,2.6828,2.6739,2.6739,2.6739,0,0,2.595,2.6005,2.6041,2.6138,2.6185,2.6246,2.6242,2.6308,2.6353,2.6377,2.6457,2.6495,2.6562,2.6646,2.6685,2.6679,2.6802,2.6773,2.6775,2.678,2.6825,2.6833,2.6841,2.6742,2.6742,2.6741,0,0,2.6008,2.6057,2.612,2.6166,2.6237,2.6272,2.6287,2.6362,2.6388,2.6469,2.6488,2.6543,2.6651,2.6697,2.6735,2.6809,2.682,2.6828,2.6851,2.6895,2.6902,2.6909,2.6933,2.6942,2.6835,2.6835,2.6835,0,2.6017,2.6111,2.615,2.6215,2.6256,2.6281,2.6345,2.6388,2.6475,2.6502,2.6494,2.663,2.6676,2.677,2.6788,2.6819,2.6836,2.6819,2.6898,2.6905,2.6912,2.6936,2.6945,2.6835,2.6835,2.6835,2.6835,0,2.6118,2.6183,2.6225,2.6308,2.6354,2.6418,2.6466,2.6508,2.6528,2.6564,2.6645,2.6702,2.6775,2.68,2.682,2.6896,2.689,2.689,2.6874,2.692,2.6943,2.6953,2.6836,2.6836,2.6835,2.6835,0,0,2.6169,2.6273,2.6288,2.6325,2.6404,2.6455,2.6519,2.6591,2.6625,2.6684,2.6738,2.6829,2.6829,2.6871,2.6897,2.6936,2.6989,2.6931,2.6933,2.6938,2.7074,2.7072,2.7083,2.6997,2.6999,2.7001,2.7068,0,2.6235,2.6351,2.6388,2.6484,2.6543,2.6567,2.6623,2.6677,2.6713,2.6768,2.6807,2.6869,2.6866,2.6891,2.6931,2.6974,2.7016,2.697,2.7046,2.7048,2.7027,2.7095,2.7094,2.7155,2.7078,2.7079,2.708,0,2.6327,2.6387,2.6489,2.656,2.6586,2.6636,2.6703,2.6756,2.6818,2.6841,2.6888,2.691,2.6977,2.6959,2.7051,2.7018,2.7052,2.7077,2.708,2.7088,2.7066,2.7102,2.7176,2.7184,2.7095,2.7094,2.7093,0,2.6352,2.6459,2.6533,2.6565,2.6649,2.6683,2.672,2.678,2.682,2.6879,2.6906,2.6972,2.7008,2.7058,2.7097,2.7081,2.7185,2.7171,2.7205,2.7204,2.7224,2.7222,2.7302,2.7249,2.7249,2.7249,2.7248,0,2.642,2.6481,2.6545,2.6591,2.6659,2.6701,2.6767,2.6805,2.6858,2.6911,2.6937,2.6985,2.7034,2.7089,2.712,2.7191,2.7207,2.7227,2.7234,2.7224,2.7221,2.7245,2.7241,2.7251,2.725,2.725,2.725,0,2.6459,2.6504,2.6587,2.666,2.668,2.6727,2.6789,2.6834,2.687,2.6936,2.6954,2.7011,2.7077,2.7121,2.7206,2.7227,2.7303,2.731,2.7282,2.7285,2.7315,2.7311,2.7412,2.7427,2.7365,2.7366,2.7366,0,2.6499,2.6546,2.6624,2.6662,2.6698,2.6758,2.6799,2.6842,2.6884,2.6957,2.6992,2.706,2.7116,2.722,2.7268,2.7333,2.7341,2.7372,2.735,2.7338,2.7339,2.7335,2.7339,2.7374,2.7375,2.7375,2.7375,0,2.6564,2.6584,2.6642,2.6709,2.6757,2.6811,2.6865,2.6894,2.6946,2.6991,2.7059,2.7103,2.7189,2.7255,2.7324,2.7361,2.7376,2.7382,2.7393,2.7382,2.7363,2.7372,2.7289,2.7379,2.7379,2.7378,2.7378,2.7378,2.6603,2.6646,2.6707,2.6771,2.6817,2.6866,2.6911,2.6953,2.7011,2.7084,2.7106,2.7176,2.7235,2.7329,2.7367,2.7422,2.7419,2.7435,2.7439,2.7442,2.7441,2.7355,2.7435,2.7435,2.7435,2.7435,2.7435,0,2.6668,2.6709,2.6767,2.6842,2.6892,2.6903,2.6964,2.7004,2.7066,2.712,2.7175,2.7252,2.7316,2.7369,2.7435,2.7469,2.7477,2.7485,2.7482,2.749,2.7441,2.7424,2.7476,2.7476,2.7476,2.7476,2.7476,2.7476,2.6708,2.678,2.6807,2.6901,2.6942,2.701,2.7044,2.7089,2.7133,2.7217,2.7271,2.7306,2.7359,2.7429,2.7488,2.7502,2.7525,2.753,2.7545,2.7498,2.7493,2.7489,2.7473,2.7535,2.7535,2.7589,2.759,2.759]},{"header":{"parameterUnit":"m.s-1","parameterCategory":1,"la1":30.2991,"la2":30.254,"lo1":-89.0895,"lo2":-89.0444,"dy":0.0017,"dx":0.0017,"nx":28,"ny":28,"refTime":"2025-08-15T03:00:00:Z","depth":0,"parameterNumber":3,"parameterNumberName":"V-component_of_WINDS"},"data":[0,0,0,0,0,0,0,0,0,0,0,0,0,0,0,0,0,0,0,0,0,0,0,0,0,0,0,0,0,0,0,0,0,0,0,0,0,0,0,0,0,0,0,0,0,0,0,0,0,0,0,0,0,0,0,0,0,0,2.5955,2.5956,0,2.5992,2.5993,2.5993,2.598,2.5979,2.5978,2.5977,2.601,2.6012,2.6013,0,0,0,0,0,0,0,0,0,0,0,0,0,2.5869,2.587,2.5955,2.5956,2.5956,2.5992,2.5993,2.5993,2.598,2.5979,2.5978,2.5977,2.601,2.6012,2.6014,0,0,0,0,0,0,0,0,0,0,0,0,0,2.5906,2.5871,2.5955,2.5954,2.5954,2.5992,2.5993,2.5993,2.598,2.5979,2.5978,2.5977,2.6009,2.6011,2.6014,2.6053,0,0,2.6021,2.6022,0,0,0,0,0,0,0,0,2.5904,2.5909,2.5954,2.5954,2.5955,2.598,2.5974,2.6013,2.5981,2.597,2.5977,2.5976,2.6001,2.6004,2.6013,2.6055,2.6056,2.6022,2.6023,2.6024,2.6025,0,0,0,0,0,0,0,2.5901,2.5907,2.597,2.5955,2.5955,2.595,2.5954,2.5982,2.5992,2.5971,2.597,2.5975,2.6001,2.6011,2.6014,2.6057,2.6021,2.6024,2.6025,2.6026,2.6132,2.6133,0,0,0,0,0,0,2.5899,2.5905,2.5969,2.5971,2.5926,2.5953,2.5957,2.5973,2.5992,2.5993,2.5976,2.5974,2.6008,2.6011,2.6015,2.6063,2.6024,2.6026,2.6028,2.6131,2.6132,2.6134,0,0,0,0,0,0,2.5897,2.5905,2.5967,2.5938,2.5946,2.5956,2.5974,2.5975,2.5985,2.5995,2.5997,2.5985,2.6007,2.6012,2.6044,2.6064,2.6027,2.603,2.6129,2.6131,2.6133,2.6158,0,0,0,0,0,0,2.5895,2.5904,2.5921,2.5939,2.5947,2.5997,2.5975,2.5976,2.599,2.5988,2.6004,2.6005,2.6006,2.6041,2.6047,2.6066,2.6032,2.6127,2.613,2.6132,2.6155,2.616,2.6165,0,0,0,0,0,2.5892,2.5925,2.5922,2.5929,2.5968,2.5998,2.6003,2.6005,2.5991,2.6007,2.6014,2.6005,2.6061,2.6044,2.6051,2.6071,2.6126,2.6129,2.6132,2.6153,2.6159,2.6165,0,0,0,0,0,0,2.5907,2.5927,2.5924,2.5964,2.598,2.5996,2.6016,2.6011,2.603,2.6027,2.6026,2.603,2.6064,2.6071,2.6052,2.611,2.6091,2.6096,2.6105,2.6111,2.6115,2.6113,2.6034,0,0,0,0,0,2.5915,2.594,2.5956,2.5989,2.5998,2.6005,2.6019,2.6019,2.6034,2.604,2.605,2.6064,2.6084,2.6098,2.6117,2.6156,2.6159,2.6174,2.6178,2.6182,2.6186,2.6207,2.6213,2.6144,2.6144,2.6144,0,0,2.5932,2.5946,2.5961,2.5993,2.6005,2.6029,2.6011,2.6037,2.6055,2.6044,2.6076,2.6083,2.6099,2.6135,2.6151,2.6141,2.6206,2.6186,2.6189,2.6191,2.6211,2.6217,2.6223,2.6146,2.6146,2.6145,0,0,2.5975,2.5988,2.6018,2.6031,2.6051,2.6056,2.6063,2.6081,2.6086,2.6118,2.611,2.613,2.6166,2.6178,2.6188,2.6236,2.6229,2.6243,2.6267,2.6288,2.6293,2.6298,2.6315,2.6321,2.6246,2.6246,2.6246,0,2.5992,2.603,2.6033,2.6061,2.6074,2.6068,2.6097,2.6109,2.6133,2.6142,2.6132,2.6177,2.6187,2.6226,2.6238,2.6246,2.6254,2.6241,2.6292,2.6297,2.6302,2.6318,2.6324,2.6248,2.6248,2.6248,2.6247,0,2.6051,2.6077,2.6098,2.6124,2.614,2.6168,2.6175,2.619,2.6189,2.6195,2.6227,2.624,2.6262,2.6271,2.6269,2.6309,2.6303,2.6292,2.6273,2.631,2.6325,2.6331,2.625,2.625,2.6249,2.6249,0,0,2.6103,2.6132,2.6139,2.6151,2.6173,2.6192,2.622,2.6243,2.6256,2.6273,2.6295,2.6326,2.6317,2.6329,2.6329,2.6347,2.6384,2.6334,2.6334,2.6343,2.6428,2.6436,2.6443,2.6379,2.638,2.6381,2.6427,0,2.6147,2.6198,2.6202,2.6247,2.6271,2.6265,2.6289,2.6304,2.631,2.633,2.6336,2.6358,2.6344,2.6352,2.6369,2.6376,2.6401,2.6372,2.6399,2.64,2.6395,2.6451,2.6459,2.6502,2.6433,2.6434,2.6435,0,2.6206,2.6227,2.6275,2.6294,2.6304,2.6325,2.6347,2.6367,2.6383,2.6387,2.6401,2.6398,2.6425,2.6405,2.6441,2.6422,2.6433,2.6438,2.6439,2.6441,2.6419,2.6454,2.6515,2.6522,2.6444,2.6443,2.6443,0,2.6239,2.6279,2.6313,2.6323,2.6346,2.6362,2.6371,2.6387,2.6401,2.6419,2.6428,2.6449,2.646,2.6476,2.6478,2.6464,2.6515,2.6495,2.6517,2.6517,2.6528,2.6527,2.6591,2.6535,2.6535,2.6535,2.6535,0,2.6288,2.6317,2.6329,2.6349,2.6382,2.6386,2.6417,2.6425,2.644,2.6461,2.6457,2.6476,2.6479,2.6498,2.65,2.653,2.6535,2.6537,2.6538,2.6538,2.6538,2.6545,2.6542,2.6537,2.6537,2.6536,2.6536,0,2.633,2.6339,2.6376,2.6395,2.6401,2.6424,2.644,2.6459,2.6465,2.6492,2.6498,2.6507,2.6531,2.6535,2.6562,2.6563,2.6599,2.6596,2.6594,2.6593,2.6615,2.6613,2.6686,2.6695,2.6634,2.6634,2.6635,0,2.6361,2.6384,2.6406,2.6422,2.6433,2.6457,2.6472,2.6476,2.6491,2.6512,2.6529,2.6552,2.6571,2.6608,2.6616,2.6637,2.6634,2.6658,2.6637,2.6637,2.6634,2.6633,2.6635,2.6662,2.6663,2.6663,2.6664,0,2.6414,2.6418,2.6441,2.6465,2.6484,2.6502,2.652,2.6532,2.6539,2.6556,2.6581,2.6596,2.6624,2.6647,2.6668,2.6676,2.6671,2.667,2.6677,2.6677,2.6675,2.6676,2.6605,2.6669,2.6668,2.6668,2.6667,2.6667,2.6451,2.6472,2.6491,2.6517,2.6531,2.6548,2.6567,2.6577,2.6598,2.6623,2.6624,2.6651,2.6667,2.6695,2.6704,2.6725,2.6717,2.6726,2.6728,2.673,2.6732,2.6672,2.6728,2.6728,2.6728,2.6728,2.6728,0,2.6504,2.6517,2.6541,2.6567,2.6587,2.6582,2.6602,2.6618,2.6643,2.6659,2.6678,2.6707,2.6729,2.6739,2.6761,2.6775,2.6773,2.6781,2.678,2.6782,2.6738,2.673,2.6782,2.6782,2.6782,2.6782,2.6782,2.6782,2.6534,2.6569,2.6574,2.6615,2.6627,2.6655,2.6667,2.6682,2.6695,2.6728,2.6748,2.6755,2.6768,2.6791,2.6811,2.6814,2.6822,2.683,2.6831,2.679,2.6785,2.6779,2.6772,2.6832,2.6832,2.6873,2.6874,2.6874]}]]